Regional Weather Roundup
Issued by NWS

Home | Current Version | Previous Version | Text Only | Print | Product List | Glossary On
Versions: 1 2 3 4 5 6 7 8 9 10 11 12 13 14 15 16 17 18 19 20 21 22 23 24 25 26 27 28 29 30 31 32 33 34 35 36 37 38 39 40 41 42 43 44 45 46 47 48 49 50
000
ASUS43 KLSX 201010
RWRMO

WEATHER SUMMARY FOR MISSOURI
NATIONAL WEATHER SERVICE SPRINGFIELD MO
500 AM CDT MON AUG 20 2018

NOTE: "FAIR" INDICATES FEW OR NO CLOUDS BELOW 12,000 FEET WITH NO
       SIGNIFICANT WEATHER AND/OR OBSTRUCTIONS TO VISIBILITY.
       CURRENT SKY AND/OR WEATHER CONDITIONS ARE NOT AVAILABLE FOR
       CHILLICOTHE AND FARMINGTON.

MOZ001>031-035>038-043-044-053-054-201100-
...NORTHERN AND WESTERN MISSOURI...

CITY           SKY/WX    TMP DP  RH WIND       PRES   REMARKS
KANSAS CTY INT CLOUDY    67  66  97 W8        29.72R
KANSAS C DTWN  CLOUDY    69  65  86 W13       29.72R
LEE`S SUMMIT   CLOUDY    66  66 100 W16       29.74R
ST JOSEPH      CLOUDY    68  68 100 W9        29.67F
CHILLICOTHE      N/A     70  69  97 VRB5G26   29.67R
KIRKSVILLE     CLOUDY    71  68  90 S16       29.69F

$$
MOZ066>068-077>081-088>096-101>105-201100-
...SOUTHWEST MISSOURI...

CITY           SKY/WX    TMP DP  RH WIND       PRES   REMARKS
SPRINGFIELD    MOCLDY    67  64  90 S8        29.84R
JOPLIN         CLEAR     66  65  96 SW7       29.84S
BRANSON        CLEAR     68  68 100 CALM      29.87F

$$
MOZ032>034-039>042-045>050-055>058-069>072-201100-
...CENTRAL MISSOURI...

CITY           SKY/WX    TMP DP  RH WIND       PRES   REMARKS
COLUMBIA       CLOUDY    70  68  93 S9        29.74S
JEFFERSON CITY CLOUDY    72  67  84 SW7       29.75S
ROLLA          PTCLDY    69  66  90 SW15      29.80S
SEDALIA        CLOUDY    69  69 100 SW9       29.75R
WHITEMAN AFB   MOCLDY    68  66  94 W14       29.70R
WARRENSBURG    CLOUDY    66  64  94 SW12      29.73R FOG
OSAGE BEACH    CLOUDY    70  66  88 SW10      29.79R

$$
MOZ051-052-059>065-201100-
...EAST CENTRAL MISSOURI...

CITY           SKY/WX    TMP DP  RH WIND       PRES   REMARKS
ST LOUIS INTL  CLOUDY    74  73  97 S10       29.77F
SPIRIT OF STL  CLOUDY    75  72  90 S6        29.76S
ST CHARLES     CLOUDY    74  73  97 SE9       29.76S

$$
MOZ072>076-082>087-097>100-106>115-201100-
...SOUTH CENTRAL AND SOUTHEAST MISSOURI...

CITY           SKY/WX    TMP DP  RH WIND       PRES   REMARKS
CAPE GIRARDEAU FAIR      74  71  91 SW10      29.82R
FARMINGTON     CLOUDY    72  71  97 S9        29.82F
POPLAR BLUFF   FAIR      71  71 100 SW8       29.84S
WEST PLAINS    CLOUDY    71  70  96 SW6       29.87S

$$



USA.gov is the U.S. government's official web portal to all federal, state and local government web resources and services.